Regional Weather Roundup
Issued by NWS Boston, MA

Current Version | Previous Version | Text Only | Print | Product List | Glossary On
Versions: 1 2 3 4 5 6 7 8 9 10 11 12 13 14 15 16 17 18 19 20 21 22 23 24 25 26 27
000
ASUS41 KBOX 241210
RWRBOX

REGIONAL WEATHER ROUNDUP
NATIONAL WEATHER SERVICE TAUNTON MA
800 AM EDT SAT JUN 24 2017

NOTE:  "FAIR" INDICATES FEW OR NO CLOUDS BELOW 12,000 FEET WITH NO
SIGNIFICANT WEATHER AND/OR OBSTRUCTIONS TO VISIBILITY.

MAZALL-241300-
EASTERN MASSACHUSETTS

CITY           SKY/WX    TMP DP  RH WIND       PRES   REMARKS
BOSTON         CLOUDY    75  71  87 S8        29.53S
6HR MIN TEMP:  71; 6HR MAX TEMP:  76;

BEVERLY        CLOUDY    78  72  81 SW9       29.53R
LAWRENCE       CLOUDY    78  73  84 SW10      29.54S
BEDFORD        PTSUNNY   77  69  76 SW8       29.52R
BLUE HILL        N/A     74  69  85 SW16      29.56R
NORWOOD        CLOUDY    77  72  84 S7        29.54S
MARSHFIELD     CLOUDY    75  72  88 SW9       29.55S
PLYMOUTH       CLOUDY    74  68  81 SW12G21   29.58R
TAUNTON        CLOUDY    74  68  81 S12G18    29.56F
NEW BEDFORD    CLOUDY    73  68  84 SW13      29.57F
$$

MAZALL-241300-
CAPE COD AND THE ISLANDS

CITY           SKY/WX    TMP DP  RH WIND       PRES   REMARKS
FALMOUTH       NOT AVBL
HYANNIS        CLOUDY    72  70  93 SW15G23   29.60R FOG
CHATHAM        CLOUDY    70  69  97 SW9G25    29.62S FOG
PROVINCETOWN   CLOUDY    69  66  90 SW18G24   29.58R FOG
NANTUCKET      CLOUDY    66  66 100 SW14      29.64F FOG
MARTHAS VNYRD  FOG       68  67  96 SW12      29.62S VSB 1/4
$$

MAZALL-241300-
CENTRAL AND WESTERN MASSACHUSETTS

CITY           SKY/WX    TMP DP  RH WIND       PRES   REMARKS
WORCESTER      PTSUNNY   72  68  87 SW10      29.58S
6HR MIN TEMP:  71; 6HR MAX TEMP:  73; 6HR PCP: TRACE;

FITCHBURG      NOT AVBL
ORANGE         CLOUDY    74  72  93 SW5       29.56S
SPRINGFIELD    LGT RAIN  75  71  88 S8        29.53F
WESTFIELD      CLOUDY    75  72  90 SE6       29.53F
NORTH ADAMS    CLOUDY    69  68  96 W3        29.57S
PITTSFIELD     CLOUDY    71  68  90 SW8       29.58S
$$

RIZALL-241300-
RHODE ISLAND

CITY           SKY/WX    TMP DP  RH WIND       PRES   REMARKS
PROVIDENCE     CLOUDY    74  71  91 SW13      29.58S
6HR MIN TEMP:  73; 6HR MAX TEMP:  75;

NEWPORT        CLOUDY    69  69 100 S10G18    29.60S FOG
BLOCK ISLAND   FOG       67  67 100 SW13      29.61F VSB 1/4
WESTERLY       LGT RAIN  73  69  87 SW8       29.61S FOG
$$

CTZALL-241300-
CONNECTICUT

CITY           SKY/WX    TMP DP  RH WIND       PRES   REMARKS
BRADLEY INTL   LGT RAIN  73  71  93 S10       29.55S
6HR MIN TEMP:  73; 6HR MAX TEMP:  76; 6HR PCP:  0.01;

HARTFORD       CLOUDY    74  72  93 S8        29.56R
BRIDGEPORT     HVY RAIN  72  69  90 SW3       29.56F FOG
GROTON         LGT RAIN  69  67  93 SW13      29.60R FOG
NEW HAVEN      HVY RAIN  70  68  94 W6        29.59R FOG
CHESTER        NOT AVBL
MERIDEN        LGT RAIN  72  71  97 S9        29.58S
WILLIMANTIC    CLOUDY    76  72  87 SW7       29.58S
OXFORD         CLOUDY    72  66  83 VRB5      29.60S
$$

MEZ002-015-021-024-NHZ003-005-008-011-012-014-VTZ005-008-241300-
NORTHERN NEW ENGLAND

CITY           SKY/WX    TMP DP  RH WIND       PRES   REMARKS
PORTLAND ME    CLOUDY    75  70  84 S9        29.48R
6HR MIN TEMP:  65; 6HR MAX TEMP:  75;

BANGOR ME      FOG       65  65 100 S8        29.45S VSB 1
CONCORD NH     LGT RAIN  73  70  90 SW6       29.52S FOG
MANCHESTER NH  LGT RAIN  75  70  84 SW7       29.52R
NASHUA NH      CLOUDY    77  72  84 W7        29.53S
PORTSMOUTH NH  PTSUNNY   76  72  85 W8        29.49S
JAFFREY NH     LGT RAIN  70  67  90 W7        29.58R
KEENE NH       CLOUDY    69  67  93 CALM      29.56S
BURLINGTON VT  LGT RAIN  71  69  93 W6        29.53R
MT. WASHINGTON SHOWER    52  52 100 W55         N/A  VSB 0
$$

NYZ052-076-241300-
EASTERN NEW YORK

CITY           SKY/WX    TMP DP  RH WIND       PRES   REMARKS
ALBANY         LGT RAIN  70  66  87 NW14      29.58R
6HR MIN TEMP:  70; 6HR MAX TEMP:  75; 6HR PCP:  0.12;

NEW YORK CITY  RAIN      71  71 100 NW7       29.59R FOG
6HR MIN TEMP:  71; 6HR MAX TEMP:  78; 6HR PCP:  0.92;

$$

ANZALL-241300-
MARINE OBSERVATIONS

STATION/POSITION TIME  TEMP    WIND        PRES    VSBY  WAVE
                       AIR SEA DIR/SP/G                  HT/PER
                 (UTC) (F)     (DEG/KT/KT) (MB)    (MI)  (FT/S)
BOSTON BUOY      1150   64 57  190/ 12/ 14 1000.2F         2/ 7
BUZZARDS BAY     1100   66     220/ 23/ 24 1002.6R
NANTUCKET SOUND  1150      66              1002.6R         2/ 3
MASS BAY-STELLWA 1104   64 58  200/ 12/ 14  999.4F         2/ 4
ISLE OF SHOALS   1100   69     220/ 20/ 21  998.7R
S OF BLOCK IS    1155      63                N/A           6/ 7
$$

......................KEY.........................
  SKY/WX - SKY CONDITION/PRESENT WEATHER
  TMP    - TEMPERATURE IN FAHRENHEIT
  DWPT   - DEWPOINT IN FAHRENHEIT
  RH     - RELATIVE HUMIDITY IN PERCENT
  WIND   - DIRECTION AND SPEED IN MPH
  PRES   - MEAN SEA LEVEL PRESSURE IN INCHES OF HG
  WCI    - WIND CHILL INDEX
  VSB    - VISIBILITY IN MILES
  HX     - HEAT INDEX
  TC     - TEMPERATURE IN CELSIUS
  VRB    - VARIABLE WIND DIRECTION
  N/A    - NOT AVAILABLE




USA.gov is the U.S. government's official web portal to all federal, state and local government web resources and services.